Regional Weather Roundup
Issued by NWS

Home | Current Version | Previous Version | Graphics & Text | Print | Product List | Glossary On
Versions: 1 2 3 4 5 6 7 8 9 10 11 12 13 14 15 16 17 18 19 20 21 22 23 24 25 26 27 28 29 30 31 32 33 34 35 36 37 38 39 40 41 42 43 44 45 46 47 48 49 50
290
ASUS43 KLMK 260810
RWRKY
KENTUCKY REGIONAL WEATHER ROUNDUP
NATIONAL WEATHER SERVICE LOUISVILLE KY
400 AM EDT FRI MAY 26 2017

NOTE "FAIR" INDICATES FEW OR NO CLOUDS BELOW 12,000 FEET
WITH NO SIGNIFICANT WEATHER AND/OR OBSTRUCTIONS TO VISIBILITY.

KYZ001>023-026-027-061>063-070>075-260900-
WESTERN AND SOUTH CENTRAL KENTUCKY

CITY           SKY/WX    TMP DP  RH WIND       PRES   REMARKS
PADUCAH        PTCLDY    57  50  77 SE3       29.84S
HENDERSON      CLEAR     57  52  83 S5        29.85S
OWENSBORO      CLEAR     57  53  86 S5        29.86S
HOPKINSVILLE   CLEAR     58  53  82 S3        29.89R
BOWLING GREEN  CLEAR     59  53  80 S3        29.89S
GLASGOW        CLEAR    N/A N/A N/A CALM      29.90S
$$

KYZ024-025-028>034-038-045-046-053-260900-
NORTH CENTRAL KENTUCKY

CITY           SKY/WX    TMP DP  RH WIND       PRES   REMARKS
LOUISVILLE/SDF PTCLDY    60  56  86 SW6       29.85S
LOUISVILLE/LOU PTCLDY    55  55 100 CALM      29.86S FOG
FORT KNOX      CLEAR     55  52  92 CALM      29.85S
$$

KYZ035>037-039>044-047>052-055>060-089>105-260900-
NORTHEAST KENTUCKY

CITY           SKY/WX    TMP DP  RH WIND       PRES   REMARKS
LEXINGTON      PTCLDY    56  53  90 SW3       29.88R FOG
COVINGTON      CLEAR     54  52  93 SW5       29.83R
FRANKFORT      PTCLDY    55  52  89 SW5       29.85S FOG
$$

KYZ054-064>069-076>088-106>120-260900-
SOUTHEAST KENTUCKY

CITY           SKY/WX    TMP DP  RH WIND       PRES   REMARKS
JACKSON        MOCLDY    56  55  97 CALM      29.88R
LONDON         CLEAR     54  51  90 CALM      29.90S
SOMERSET       CLEAR     52  52 100 CALM      29.92R FOG
MIDDLESBORO    PTCLDY    53  53 100 CALM      29.92S
MONTICELLO     MOSUNNY   48  48 100 CALM      29.93R FOG
$$





USA.gov is the U.S. government's official web portal to all federal, state and local government web resources and services.